RYR06RR EGSS-LEAM

Flight info

Callsign RYR06RR
Flight time 2h 10m
Altitude 35000
Route NUGBO M183 SILVA Q41 COWLY UT71 VAPID UN859 SOPIL DCT BALAN DCT LMG DCT PIMQO DCT AGN DCT ANETO N860 DOSEK
Aircraft B38M/M-SDE1FGHILORVWXY/HB1

Departure

Time 2026-04-14 10:36
Airport London Stansted Airport (EGSS)

Arrival

Time 2026-04-14 12:46
Airport Almería Airport (LEAM)
Time Latitude Longitude Altitude Speed Heading
2026-04-14 10:09 51.89000 0.25741 355 ft 0 kts 43°
2026-04-14 10:27 51.88984 0.25718 363 ft 4 kts 43°
2026-04-14 10:27 51.88970 0.25687 355 ft 4 kts 85°
2026-04-14 10:27 51.88972 0.25655 355 ft 4 kts 97°
2026-04-14 10:27 51.88969 0.25624 355 ft 4 kts 26°
2026-04-14 10:28 51.88951 0.25630 364 ft 4 kts 317°
2026-04-14 10:28 51.88937 0.25654 355 ft 4 kts 313°
2026-04-14 10:28 51.88932 0.25662 364 ft 1 kts 313°
2026-04-14 10:32 51.88932 0.25661 355 ft 0 kts 313°
2026-04-14 10:32 51.88944 0.25640 363 ft 4 kts 312°
2026-04-14 10:33 51.88986 0.25567 355 ft 14 kts 314°
2026-04-14 10:33 51.89079 0.25403 357 ft 23 kts 313°
2026-04-14 10:33 51.89192 0.25245 361 ft 21 kts 324°
2026-04-14 10:33 51.89292 0.25221 355 ft 15 kts 40°
2026-04-14 10:34 51.89369 0.25234 362 ft 5 kts 313°
2026-04-14 10:34 51.89406 0.25170 356 ft 11 kts 313°
2026-04-14 10:34 51.89476 0.25049 365 ft 13 kts 314°
2026-04-14 10:35 51.89492 0.24983 365 ft 8 kts 250°
2026-04-14 10:35 51.89438 0.24889 355 ft 15 kts 221°
2026-04-14 10:35 51.89163 0.24476 352 ft 95 kts 223°
2026-04-14 10:35 51.88498 0.23475 351 ft 163 kts 223°
2026-04-14 10:36 51.87615 0.22118 907 ft 185 kts 221°
2026-04-14 10:36 51.86679 0.20683 1862 ft 188 kts 220°
2026-04-14 10:36 51.85683 0.19221 2451 ft 201 kts 220°
2026-04-14 10:36 51.84600 0.17604 2658 ft 220 kts 221°
2026-04-14 10:37 51.83510 0.15770 2791 ft 237 kts 236°
2026-04-14 10:37 51.82934 0.13180 3374 ft 256 kts 263°
2026-04-14 10:37 51.83285 0.10385 4293 ft 260 kts 297°
2026-04-14 10:37 51.84620 0.08380 5084 ft 271 kts 334°
2026-04-14 10:38 51.86477 0.07788 5910 ft 278 kts 358°
2026-04-14 10:38 51.88407 0.07486 6656 ft 280 kts 337°
2026-04-14 10:38 51.89950 0.05724 7484 ft 273 kts 304°
2026-04-14 10:38 51.90643 0.02919 8209 ft 269 kts 270°
2026-04-14 10:39 51.90278 -0.00003 8955 ft 269 kts 245°
2026-04-14 10:39 51.89644 -0.02893 9665 ft 275 kts 258°
2026-04-14 10:39 51.89371 -0.05958 10454 ft 279 kts 261°
2026-04-14 10:39 51.89151 -0.09188 10824 ft 298 kts 264°
2026-04-14 10:40 51.88971 -0.12592 11185 ft 315 kts 265°
2026-04-14 10:40 51.88804 -0.16193 11718 ft 326 kts 265°
2026-04-14 10:40 51.88639 -0.19852 12547 ft 326 kts 266°
2026-04-14 10:40 51.88473 -0.23545 13254 ft 332 kts 266°
2026-04-14 10:41 51.88307 -0.27281 14057 ft 334 kts 266°
2026-04-14 10:41 51.88137 -0.31040 14818 ft 337 kts 266°
2026-04-14 10:41 51.87964 -0.34849 15591 ft 340 kts 267°
2026-04-14 10:41 51.87788 -0.38680 16318 ft 343 kts 267°
2026-04-14 10:42 51.87609 -0.42554 17022 ft 347 kts 267°
2026-04-14 10:42 51.87428 -0.46451 17700 ft 350 kts 268°
2026-04-14 10:42 51.87158 -0.50384 18339 ft 355 kts 258°
2026-04-14 10:42 51.86162 -0.54077 19016 ft 364 kts 239°
2026-04-14 10:43 51.84422 -0.57118 19627 ft 376 kts 222°
2026-04-14 10:43 51.82128 -0.59252 20228 ft 388 kts 205°
2026-04-14 10:43 51.79463 -0.60190 20809 ft 399 kts 188°
2026-04-14 10:43 51.76681 -0.60519 21329 ft 403 kts 189°
2026-04-14 10:44 51.73873 -0.60962 21811 ft 408 kts 190°
2026-04-14 10:44 51.71036 -0.61430 22335 ft 411 kts 190°
2026-04-14 10:44 51.68176 -0.61912 22810 ft 415 kts 191°
2026-04-14 10:44 51.65291 -0.62401 23294 ft 419 kts 191°
2026-04-14 10:45 51.62380 -0.62896 23757 ft 423 kts 191°
2026-04-14 10:45 51.59435 -0.63396 24204 ft 427 kts 191°
2026-04-14 10:45 51.56461 -0.63901 24653 ft 431 kts 191°
2026-04-14 10:45 51.53477 -0.64404 25118 ft 433 kts 191°
2026-04-14 10:46 51.50465 -0.64911 25545 ft 436 kts 191°
2026-04-14 10:46 51.47438 -0.65424 25976 ft 439 kts 191°
2026-04-14 10:46 51.44390 -0.65936 26393 ft 442 kts 192°
2026-04-14 10:46 51.41359 -0.66445 26779 ft 445 kts 192°
2026-04-14 10:47 51.38271 -0.66963 27193 ft 447 kts 192°
2026-04-14 10:47 51.35171 -0.67480 27572 ft 450 kts 192°
2026-04-14 10:47 51.32043 -0.68004 27935 ft 453 kts 192°
2026-04-14 10:47 51.28902 -0.68528 28307 ft 455 kts 192°
2026-04-14 10:48 51.25746 -0.69053 28662 ft 457 kts 192°
2026-04-14 10:48 51.22567 -0.69581 29010 ft 460 kts 192°
2026-04-14 10:48 51.19375 -0.70110 29345 ft 463 kts 192°
2026-04-14 10:48 51.16166 -0.70643 29678 ft 465 kts 192°
2026-04-14 10:49 51.12940 -0.71176 30005 ft 467 kts 192°
2026-04-14 10:49 51.09701 -0.71711 30316 ft 470 kts 192°
2026-04-14 10:49 51.06451 -0.72245 30621 ft 472 kts 192°
2026-04-14 10:49 51.03165 -0.72786 30878 ft 475 kts 192°
2026-04-14 10:50 50.99867 -0.73327 31141 ft 478 kts 192°
2026-04-14 10:50 50.96545 -0.73872 31388 ft 482 kts 192°
2026-04-14 10:50 50.93202 -0.74420 31665 ft 484 kts 192°
2026-04-14 10:50 50.89881 -0.74922 31922 ft 490 kts 188°
2026-04-14 10:51 50.86443 -0.74561 32193 ft 501 kts 173°
2026-04-14 10:51 50.83096 -0.72869 32475 ft 511 kts 156°
2026-04-14 10:51 50.80019 -0.69997 32683 ft 517 kts 148°
2026-04-14 10:51 50.76977 -0.66928 32890 ft 520 kts 149°
2026-04-14 10:52 50.73920 -0.63849 33151 ft 522 kts 148°
2026-04-14 10:52 50.70853 -0.60744 33377 ft 525 kts 148°
2026-04-14 10:52 50.67777 -0.57629 33622 ft 527 kts 148°
2026-04-14 10:52 50.64684 -0.54501 33934 ft 528 kts 148°
2026-04-14 10:53 50.61594 -0.51381 34223 ft 529 kts 148°
2026-04-14 10:53 50.58495 -0.48256 34531 ft 528 kts 148°
2026-04-14 10:53 50.55402 -0.45143 34885 ft 527 kts 148°
2026-04-14 10:53 50.52318 -0.42044 35150 ft 528 kts 148°
2026-04-14 10:54 50.49224 -0.38941 35167 ft 525 kts 149°
2026-04-14 10:54 50.43086 -0.32794 35140 ft 523 kts 149°
2026-04-14 10:55 50.36954 -0.26675 35151 ft 523 kts 149°
2026-04-14 10:55 50.30806 -0.20559 35149 ft 523 kts 149°
2026-04-14 10:56 50.24702 -0.14506 35146 ft 523 kts 149°
2026-04-14 10:56 50.18557 -0.08429 35148 ft 523 kts 149°
2026-04-14 10:57 50.12406 -0.02364 35146 ft 523 kts 149°
2026-04-14 10:57 50.09168 0.00131 35122 ft 517 kts 166°
2026-04-14 10:57 50.05719 0.01559 35166 ft 514 kts 168°
2026-04-14 10:58 49.98842 0.04387 35170 ft 508 kts 167°
2026-04-14 10:58 49.92006 0.07090 35154 ft 507 kts 168°
2026-04-14 10:59 49.85182 0.09764 35156 ft 507 kts 168°
2026-04-14 10:59 49.78284 0.12459 35155 ft 507 kts 168°
2026-04-14 11:00 49.71500 0.15102 35157 ft 507 kts 168°
2026-04-14 11:00 49.64654 0.17846 35158 ft 508 kts 167°
2026-04-14 11:01 49.57822 0.20595 35154 ft 507 kts 167°
2026-04-14 11:01 49.50985 0.23336 35157 ft 508 kts 167°
2026-04-14 11:02 49.44146 0.26068 35156 ft 508 kts 167°
2026-04-14 11:02 49.37307 0.28793 35157 ft 508 kts 167°
2026-04-14 11:03 49.30467 0.31557 35155 ft 508 kts 166°
2026-04-14 11:03 49.23650 0.34453 35158 ft 508 kts 166°
2026-04-14 11:04 49.16823 0.37321 35156 ft 509 kts 166°
2026-04-14 11:04 49.10029 0.40164 35162 ft 510 kts 166°
2026-04-14 11:05 49.03176 0.43025 35173 ft 511 kts 166°
2026-04-14 11:05 48.96318 0.45880 35172 ft 511 kts 166°
2026-04-14 11:06 48.89453 0.48729 35176 ft 512 kts 165°
2026-04-14 11:06 48.82576 0.51574 35176 ft 512 kts 165°
2026-04-14 11:07 48.75681 0.54325 35182 ft 512 kts 166°
2026-04-14 11:07 48.68778 0.57039 35183 ft 513 kts 166°
2026-04-14 11:08 48.61866 0.59755 35182 ft 513 kts 166°
2026-04-14 11:08 48.54949 0.62466 35193 ft 514 kts 166°
2026-04-14 11:09 48.48039 0.65264 35190 ft 514 kts 165°
2026-04-14 11:09 48.41123 0.68066 35187 ft 514 kts 165°
2026-04-14 11:10 48.30756 0.72249 35181 ft 515 kts 165°
2026-04-14 11:10 48.23849 0.75006 35183 ft 514 kts 166°
2026-04-14 11:11 48.16902 0.77741 35184 ft 515 kts 166°
2026-04-14 11:11 48.09978 0.80464 35184 ft 514 kts 166°
2026-04-14 11:12 48.03052 0.83181 35184 ft 515 kts 166°
2026-04-14 11:12 47.96130 0.85890 35189 ft 515 kts 165°
2026-04-14 11:13 47.89194 0.88595 35199 ft 515 kts 165°
2026-04-14 11:13 47.82265 0.91289 35193 ft 515 kts 165°
2026-04-14 11:14 47.75384 0.93954 35205 ft 514 kts 165°
2026-04-14 11:14 47.68472 0.96625 35199 ft 513 kts 165°
2026-04-14 11:15 47.61567 0.99286 35203 ft 513 kts 165°
2026-04-14 11:15 47.54661 1.01939 35201 ft 512 kts 165°
2026-04-14 11:16 47.47770 1.04580 35204 ft 512 kts 165°
2026-04-14 11:16 47.40801 1.06363 35191 ft 506 kts 184°
2026-04-14 11:17 47.33736 1.06207 35198 ft 508 kts 182°
2026-04-14 11:17 47.26699 1.06063 35209 ft 509 kts 182°
2026-04-14 11:18 47.19620 1.05898 35211 ft 509 kts 182°
2026-04-14 11:18 47.12540 1.05733 35210 ft 509 kts 182°
2026-04-14 11:19 47.05458 1.05568 35212 ft 509 kts 182°
2026-04-14 11:19 46.98381 1.05285 35210 ft 509 kts 183°
2026-04-14 11:20 46.92495 1.05034 35210 ft 509 kts 183°
2026-04-14 11:20 46.84263 1.04689 35210 ft 509 kts 183°
2026-04-14 11:21 46.77184 1.04394 35215 ft 509 kts 183°
2026-04-14 11:21 46.71310 1.04149 35208 ft 508 kts 183°
2026-04-14 11:22 46.64234 1.03857 35209 ft 508 kts 183°
2026-04-14 11:22 46.57164 1.03565 35205 ft 509 kts 183°
2026-04-14 11:23 46.50089 1.03360 35208 ft 509 kts 181°
2026-04-14 11:23 46.43008 1.03300 35211 ft 509 kts 181°
2026-04-14 11:24 46.35927 1.03214 35211 ft 509 kts 181°
2026-04-14 11:24 46.28894 1.03129 35214 ft 509 kts 181°
2026-04-14 11:25 46.21808 1.03042 35213 ft 509 kts 181°
2026-04-14 11:25 46.14732 1.02956 35207 ft 509 kts 181°
2026-04-14 11:26 46.07652 1.02870 35211 ft 509 kts 181°
2026-04-14 11:26 46.00567 1.02785 35208 ft 509 kts 181°
2026-04-14 11:27 45.93487 1.02700 35213 ft 510 kts 181°
2026-04-14 11:27 45.86394 1.02614 35211 ft 509 kts 181°
2026-04-14 11:28 45.79336 1.03124 35208 ft 508 kts 167°
2026-04-14 11:28 45.72407 1.04935 35203 ft 510 kts 169°
2026-04-14 11:29 45.65422 1.06723 35212 ft 510 kts 169°
2026-04-14 11:29 45.58436 1.08513 35213 ft 510 kts 169°
2026-04-14 11:30 45.51461 1.10297 35212 ft 509 kts 169°
2026-04-14 11:30 45.44490 1.12075 35209 ft 509 kts 169°
2026-04-14 11:31 45.37517 1.13849 35215 ft 509 kts 169°
2026-04-14 11:31 45.30546 1.15619 35212 ft 509 kts 169°
2026-04-14 11:32 45.23620 1.17372 35209 ft 509 kts 169°
2026-04-14 11:32 45.16617 1.18932 35188 ft 510 kts 180°
2026-04-14 11:33 45.13116 1.18459 35228 ft 505 kts 192°
2026-04-14 11:33 45.09632 1.17627 35188 ft 508 kts 191°
2026-04-14 11:34 44.99197 1.15021 35209 ft 508 kts 192°
2026-04-14 11:34 44.92235 1.13241 35215 ft 509 kts 192°
2026-04-14 11:35 44.85269 1.11464 35207 ft 508 kts 192°
2026-04-14 11:35 44.78310 1.09693 35215 ft 508 kts 192°
2026-04-14 11:36 44.71395 1.07936 35217 ft 509 kts 192°
2026-04-14 11:36 44.64424 1.06171 35214 ft 509 kts 192°
2026-04-14 11:37 44.57448 1.04408 35225 ft 510 kts 192°
2026-04-14 11:37 44.50469 1.02648 35222 ft 509 kts 192°
2026-04-14 11:38 44.43490 1.00894 35227 ft 510 kts 192°
2026-04-14 11:38 44.36500 0.99140 35231 ft 510 kts 192°
2026-04-14 11:39 44.29507 0.97389 35222 ft 510 kts 192°
2026-04-14 11:39 44.22523 0.95646 35208 ft 510 kts 192°
2026-04-14 11:40 44.15530 0.93905 35211 ft 511 kts 192°
2026-04-14 11:40 44.08572 0.92176 35207 ft 511 kts 192°
2026-04-14 11:41 44.01566 0.90440 35213 ft 512 kts 192°
2026-04-14 11:41 43.94555 0.88705 35209 ft 513 kts 192°
2026-04-14 11:42 43.87533 0.86917 35209 ft 513 kts 193°
2026-04-14 11:42 43.80532 0.85023 35210 ft 513 kts 192°
2026-04-14 11:43 43.73523 0.83151 35212 ft 513 kts 192°
2026-04-14 11:43 43.66513 0.81285 35212 ft 513 kts 192°
2026-04-14 11:44 43.59504 0.79423 35211 ft 513 kts 192°
2026-04-14 11:44 43.52542 0.77577 35211 ft 513 kts 192°
2026-04-14 11:45 43.45528 0.75723 35207 ft 513 kts 192°
2026-04-14 11:45 43.38518 0.73874 35202 ft 513 kts 192°
2026-04-14 11:46 43.31504 0.72028 35206 ft 513 kts 192°
2026-04-14 11:46 43.24493 0.70188 35206 ft 513 kts 192°
2026-04-14 11:47 43.17527 0.68362 35192 ft 513 kts 192°
2026-04-14 11:47 43.10512 0.66530 35183 ft 514 kts 192°
2026-04-14 11:48 43.03493 0.64700 35180 ft 513 kts 192°
2026-04-14 11:48 42.96481 0.62876 35182 ft 514 kts 192°
2026-04-14 11:49 42.89451 0.61054 35171 ft 514 kts 192°
2026-04-14 11:49 42.82420 0.59232 35178 ft 515 kts 192°
2026-04-14 11:50 42.75387 0.57415 35164 ft 514 kts 192°
2026-04-14 11:50 42.68345 0.55599 35150 ft 516 kts 192°
2026-04-14 11:51 42.57786 0.52883 35157 ft 516 kts 192°
2026-04-14 11:51 42.50770 0.51084 35143 ft 516 kts 192°
2026-04-14 11:52 42.43704 0.49277 35141 ft 517 kts 192°
2026-04-14 11:52 42.36627 0.47469 35119 ft 517 kts 192°
2026-04-14 11:53 42.29552 0.45665 35111 ft 518 kts 192°
2026-04-14 11:53 42.22463 0.43862 35106 ft 518 kts 192°
2026-04-14 11:54 42.15372 0.42061 35099 ft 519 kts 192°
2026-04-14 11:54 42.08271 0.40264 35111 ft 519 kts 192°
2026-04-14 11:55 42.01164 0.38468 35097 ft 520 kts 192°
2026-04-14 11:55 41.94051 0.36675 35097 ft 520 kts 192°
2026-04-14 11:56 41.86945 0.34889 35101 ft 520 kts 192°
2026-04-14 11:56 41.79832 0.33105 35099 ft 520 kts 192°
2026-04-14 11:57 41.72721 0.31325 35101 ft 519 kts 192°
2026-04-14 11:57 41.65620 0.29552 35102 ft 519 kts 192°
2026-04-14 11:58 41.58519 0.27783 35098 ft 519 kts 192°
2026-04-14 11:58 41.51417 0.26018 35100 ft 519 kts 192°
2026-04-14 11:59 41.44322 0.24258 35089 ft 518 kts 192°
2026-04-14 11:59 41.37235 0.22504 35095 ft 518 kts 192°
2026-04-14 12:00 41.30149 0.20754 35093 ft 518 kts 192°
2026-04-14 12:00 41.23069 0.19010 35092 ft 517 kts 192°
2026-04-14 12:01 41.15990 0.17270 35097 ft 517 kts 192°
2026-04-14 12:01 41.09038 0.14927 35113 ft 515 kts 199°
2026-04-14 12:02 41.02183 0.12173 35101 ft 514 kts 199°
2026-04-14 12:02 40.95334 0.09414 35098 ft 515 kts 199°
2026-04-14 12:03 40.88482 0.06660 35102 ft 515 kts 199°
2026-04-14 12:03 40.81632 0.03913 35097 ft 514 kts 199°
2026-04-14 12:04 40.74781 0.01172 35095 ft 515 kts 199°
2026-04-14 12:04 40.67916 -0.01569 35102 ft 516 kts 200°
2026-04-14 12:05 40.60991 -0.04331 35087 ft 526 kts 200°
2026-04-14 12:05 40.53900 -0.07146 35100 ft 541 kts 200°
2026-04-14 12:06 40.50330 -0.08564 35235 ft 544 kts 200°
2026-04-14 12:06 40.46703 -0.10001 35575 ft 544 kts 200°
2026-04-14 12:06 40.43041 -0.11451 35914 ft 542 kts 200°
2026-04-14 12:06 40.39480 -0.12860 36246 ft 540 kts 200°
2026-04-14 12:07 40.35887 -0.14279 36588 ft 539 kts 200°
2026-04-14 12:07 40.32301 -0.15694 36900 ft 537 kts 200°
2026-04-14 12:07 40.28740 -0.17100 37296 ft 532 kts 200°
2026-04-14 12:07 40.25160 -0.18509 37663 ft 528 kts 200°
2026-04-14 12:08 40.21695 -0.19872 37967 ft 525 kts 200°
2026-04-14 12:08 40.18208 -0.21243 38265 ft 523 kts 200°
2026-04-14 12:08 40.14731 -0.22607 38532 ft 521 kts 200°
2026-04-14 12:08 40.11262 -0.23967 38761 ft 520 kts 200°
2026-04-14 12:09 40.07799 -0.25324 38975 ft 519 kts 200°
2026-04-14 12:09 40.04353 -0.26673 39124 ft 518 kts 199°
2026-04-14 12:09 39.97452 -0.29367 39103 ft 515 kts 199°
2026-04-14 12:10 39.90567 -0.32051 39107 ft 519 kts 199°
2026-04-14 12:10 39.83621 -0.34753 39105 ft 521 kts 199°
2026-04-14 12:11 39.76671 -0.37451 39104 ft 521 kts 199°
2026-04-14 12:11 39.69724 -0.40142 39107 ft 521 kts 199°
2026-04-14 12:12 39.62775 -0.42829 39096 ft 520 kts 199°
2026-04-14 12:12 39.55825 -0.45510 39106 ft 521 kts 199°
2026-04-14 12:13 39.48896 -0.48235 39093 ft 519 kts 205°
2026-04-14 12:13 39.42572 -0.52506 39084 ft 514 kts 212°
2026-04-14 12:14 39.36270 -0.56875 39108 ft 514 kts 213°
2026-04-14 12:14 39.29974 -0.61249 39111 ft 514 kts 213°
2026-04-14 12:15 39.23680 -0.65613 39112 ft 513 kts 213°
2026-04-14 12:15 39.17427 -0.69940 39090 ft 513 kts 212°
2026-04-14 12:16 39.11142 -0.74280 39122 ft 513 kts 212°
2026-04-14 12:16 39.04849 -0.78617 39114 ft 513 kts 213°
2026-04-14 12:17 38.98554 -0.82947 39125 ft 513 kts 212°
2026-04-14 12:17 38.92257 -0.87268 39135 ft 513 kts 212°
2026-04-14 12:18 38.85964 -0.91579 39113 ft 512 kts 213°
2026-04-14 12:18 38.80746 -0.95147 39127 ft 511 kts 213°
2026-04-14 12:19 38.74464 -0.99434 39147 ft 511 kts 212°
2026-04-14 12:19 38.68181 -1.03713 39138 ft 511 kts 212°
2026-04-14 12:20 38.61901 -1.07983 39109 ft 510 kts 212°
2026-04-14 12:20 38.55619 -1.12245 39117 ft 511 kts 212°
2026-04-14 12:21 38.49342 -1.16493 39123 ft 510 kts 212°
2026-04-14 12:21 38.43081 -1.20725 39122 ft 509 kts 212°
2026-04-14 12:22 38.36819 -1.24948 39139 ft 510 kts 212°
2026-04-14 12:22 38.30532 -1.29179 38116 ft 514 kts 212°
2026-04-14 12:23 38.27398 -1.31283 37711 ft 508 kts 213°
2026-04-14 12:23 38.24263 -1.33390 36979 ft 510 kts 213°
2026-04-14 12:23 38.21124 -1.35497 36219 ft 512 kts 213°
2026-04-14 12:23 38.17957 -1.37617 35376 ft 516 kts 213°
2026-04-14 12:24 38.14751 -1.39765 34369 ft 526 kts 213°
2026-04-14 12:24 38.11485 -1.41948 33305 ft 535 kts 213°
2026-04-14 12:24 38.08163 -1.44166 32343 ft 541 kts 213°
2026-04-14 12:24 38.04832 -1.46388 31632 ft 539 kts 213°
2026-04-14 12:25 38.01524 -1.48594 30915 ft 537 kts 213°
2026-04-14 12:25 37.98228 -1.50789 30208 ft 534 kts 213°
2026-04-14 12:25 37.94946 -1.52974 29464 ft 531 kts 213°
2026-04-14 12:25 37.91679 -1.55140 28674 ft 530 kts 212°
2026-04-14 12:26 37.88396 -1.57277 27769 ft 531 kts 212°
2026-04-14 12:26 37.85105 -1.59418 26772 ft 532 kts 212°
2026-04-14 12:26 37.81807 -1.61564 25731 ft 534 kts 211°
2026-04-14 12:26 37.78500 -1.63715 24788 ft 534 kts 211°
2026-04-14 12:27 37.75198 -1.65861 23975 ft 532 kts 211°
2026-04-14 12:27 37.71967 -1.67958 23203 ft 528 kts 211°
2026-04-14 12:27 37.68676 -1.70090 22479 ft 522 kts 210°
2026-04-14 12:27 37.65471 -1.72166 21835 ft 513 kts 210°
2026-04-14 12:28 37.62338 -1.74194 20680 ft 502 kts 210°
2026-04-14 12:28 37.59294 -1.76161 19448 ft 494 kts 210°
2026-04-14 12:28 37.56222 -1.78146 18168 ft 486 kts 210°
2026-04-14 12:28 37.53278 -1.80045 16896 ft 477 kts 210°
2026-04-14 12:29 37.50314 -1.81958 15579 ft 468 kts 209°
2026-04-14 12:29 37.47482 -1.83782 14708 ft 453 kts 210°
2026-04-14 12:29 37.44794 -1.85509 14749 ft 416 kts 210°
2026-04-14 12:29 37.42310 -1.87107 14753 ft 386 kts 210°
2026-04-14 12:30 37.39998 -1.88594 14768 ft 361 kts 210°
2026-04-14 12:30 37.37840 -1.89980 14766 ft 337 kts 211°
2026-04-14 12:30 37.35786 -1.91299 14768 ft 328 kts 211°
2026-04-14 12:30 37.33756 -1.92602 14726 ft 327 kts 211°
2026-04-14 12:31 37.31729 -1.93903 14728 ft 327 kts 211°
2026-04-14 12:31 37.29701 -1.95202 14722 ft 327 kts 211°
2026-04-14 12:31 37.27671 -1.96502 14727 ft 327 kts 211°
2026-04-14 12:31 37.25641 -1.97801 14727 ft 327 kts 211°
2026-04-14 12:32 37.23627 -1.99132 14740 ft 327 kts 212°
2026-04-14 12:32 37.21624 -2.00476 14727 ft 327 kts 212°
2026-04-14 12:32 37.19633 -2.01807 14560 ft 320 kts 212°
2026-04-14 12:32 37.17647 -2.03132 13770 ft 327 kts 212°
2026-04-14 12:33 37.15610 -2.04490 12877 ft 336 kts 211°
2026-04-14 12:33 37.13543 -2.05864 12207 ft 335 kts 211°
2026-04-14 12:33 37.11498 -2.07224 11645 ft 330 kts 211°
2026-04-14 12:33 37.09565 -2.08701 11078 ft 321 kts 225°
2026-04-14 12:34 37.08199 -2.10814 10518 ft 308 kts 244°
2026-04-14 12:34 37.07222 -2.13139 9923 ft 304 kts 247°
2026-04-14 12:34 37.06281 -2.15502 9357 ft 301 kts 248°
2026-04-14 12:34 37.05688 -2.17950 8736 ft 290 kts 270°
2026-04-14 12:35 37.05964 -2.20380 8158 ft 279 kts 294°
2026-04-14 12:35 37.07032 -2.22351 7550 ft 272 kts 320°
2026-04-14 12:35 37.08672 -2.23435 7228 ft 268 kts 347°
2026-04-14 12:35 37.10494 -2.23500 7107 ft 259 kts
2026-04-14 12:36 37.12161 -2.22722 7038 ft 257 kts 30°
2026-04-14 12:36 37.13462 -2.21189 7004 ft 261 kts 52°
2026-04-14 12:36 37.14175 -2.19086 6980 ft 268 kts 76°
2026-04-14 12:36 37.14129 -2.16744 6981 ft 274 kts 101°
2026-04-14 12:37 37.13304 -2.14583 6996 ft 280 kts 127°
2026-04-14 12:37 37.11805 -2.13033 6976 ft 282 kts 154°
2026-04-14 12:37 37.09942 -2.12279 7007 ft 283 kts 164°
2026-04-14 12:37 37.08059 -2.11560 7003 ft 283 kts 162°
2026-04-14 12:38 37.04328 -2.10049 6516 ft 281 kts 162°
2026-04-14 12:38 37.02489 -2.09292 6007 ft 278 kts 161°
2026-04-14 12:38 37.00692 -2.08544 5606 ft 273 kts 162°
2026-04-14 12:39 36.98924 -2.07809 5340 ft 262 kts 162°
2026-04-14 12:39 36.97223 -2.07097 5076 ft 254 kts 162°
2026-04-14 12:39 36.95569 -2.06387 4802 ft 249 kts 161°
2026-04-14 12:39 36.93885 -2.06010 4501 ft 246 kts 184°
2026-04-14 12:40 36.92225 -2.06435 4229 ft 242 kts 206°
2026-04-14 12:40 36.90896 -2.07572 4090 ft 224 kts 230°
2026-04-14 12:40 36.90145 -2.09184 3897 ft 210 kts 255°
2026-04-14 12:40 36.89991 -2.10945 3670 ft 201 kts 276°
2026-04-14 12:41 36.90109 -2.12653 3432 ft 194 kts 271°
2026-04-14 12:41 36.89946 -2.14290 3275 ft 186 kts 259°
2026-04-14 12:41 36.89603 -2.15821 3119 ft 180 kts 255°
2026-04-14 12:41 36.89240 -2.17279 2953 ft 172 kts 255°
2026-04-14 12:42 36.88894 -2.18678 2813 ft 167 kts 255°
2026-04-14 12:42 36.88559 -2.20041 2709 ft 166 kts 254°
2026-04-14 12:42 36.88221 -2.21416 2688 ft 166 kts 254°
2026-04-14 12:42 36.87883 -2.22806 2518 ft 167 kts 254°
2026-04-14 12:43 36.87548 -2.24189 2329 ft 166 kts 253°
2026-04-14 12:43 36.87204 -2.25576 2008 ft 168 kts 252°
2026-04-14 12:43 36.86861 -2.26983 1710 ft 169 kts 251°
2026-04-14 12:43 36.86513 -2.28382 1412 ft 167 kts 251°
2026-04-14 12:44 36.86192 -2.29711 1160 ft 154 kts 251°
2026-04-14 12:44 36.85898 -2.30926 929 ft 137 kts 251°
2026-04-14 12:44 36.85620 -2.32026 698 ft 130 kts 250°
2026-04-14 12:45 36.85095 -2.34173 313 ft 131 kts 251°
2026-04-14 12:45 36.84826 -2.35264 113 ft 131 kts 251°
2026-04-14 12:45 36.84574 -2.36280 61 ft 107 kts 253°
2026-04-14 12:45 36.84410 -2.36946 60 ft 71 kts 253°
2026-04-14 12:46 36.84270 -2.37519 67 ft 67 kts 252°
2026-04-14 12:46 36.84196 -2.37945 63 ft 41 kts 270°
2026-04-14 12:46 36.84223 -2.38162 58 ft 14 kts 280°
2026-04-14 12:46 36.84260 -2.38203 67 ft 4 kts 14°
2026-04-14 12:47 36.84279 -2.38177 60 ft 5 kts 58°
2026-04-14 12:47 36.84295 -2.38127 60 ft 8 kts 74°
2026-04-14 12:47 36.84315 -2.38043 63 ft 14 kts 72°
2026-04-14 12:47 36.84357 -2.37875 65 ft 26 kts 73°
2026-04-14 12:48 36.84421 -2.37611 64 ft 32 kts 74°
2026-04-14 12:48 36.84443 -2.37524 68 ft 2 kts 66°
2026-04-14 12:48 36.84461 -2.37504 66 ft 5 kts 24°
2026-04-14 12:48 36.84500 -2.37500 60 ft 6 kts
2026-04-14 12:49 36.84534 -2.37462 61 ft 9 kts 68°
2026-04-14 12:49 36.84557 -2.37370 70 ft 4 kts 73°
2026-04-14 12:49 36.84566 -2.37348 67 ft 3 kts 37°
2026-04-14 12:49 36.84606 -2.37351 69 ft 7 kts 343°
2026-04-14 12:50 36.84641 -2.37362 65 ft 1 kts
2026-04-14 12:50 36.84644 -2.37344 71 ft 1 kts 134°
2026-04-14 12:50 36.84634 -2.37331 72 ft 2 kts 124°
2026-04-14 12:51 36.84634 -2.37330 72 ft 0 kts 124°